Weather History for Cincinnati, OH

Change the Weather History Date:

Friday, December 23, 2011

  Actual Average Record
Temperature  
Mean Temperature 38 °F -  
Max Temperature 42 °F 42 °F 64 °F (1957)
Min Temperature 35 °F 26 °F -4 °F (1989)
Degree Days  
Heating Degree Days 26    
Moisture  
Dew Point 35 °F    
Average Humidity 85    
Maximum Humidity 100    
Minimum Humidity 70    
Precipitation  
Precipitation 0.01 in - - ()
Sea Level Pressure  
Sea Level Pressure 30.26 in    
Wind  
Wind Speed 3 mph (NNW)    
Max Wind Speed 9 mph    
Max Gust Speed -    
Visibility 8 miles    
Events Fog , Rain    
Averages and records for this station are not official NWS values.
T = Trace of Precipitation, MM = Missing Value Source: NWS Daily Summary

Daily Weather History Graph

Daily Weather History Graph

Search for Another Location

Airport:

Trip Planner

Search our weather history database for the weather conditions in past years. The results will help you decide how hot, cold, wet, or windy it might be!

Date:

Astronomy

Dec. 23, 2011 Rise Set
Actual Time 7:54 AM EST 5:19 PM EST
Civil Twilight 7:24 AM EST 5:49 PM EST
Nautical Twilight 6:50 AM EST 6:23 PM EST
Astronomical Twilight 6:17 AM EST 6:55 PM EST
Moon 6:42 AM EST (12/23) 4:27 PM EST (12/23)
Length of Visible Light 10h 25m
Length of Day
9h 25m
Waning Crescent, 1% of the Moon is Illuminated
Dec 23
Waning Crescent
Dec 24
New
Jan 1
First Quarter
Jan 9
Full
Jan 16
Last Quarter

Hourly Weather History & Observations

Time (EST) Temp. Windchill Dew Point Humidity Pressure Visibility Wind Dir Wind Speed Gust Speed Precip Events Conditions
12:53 AM 37.9 °F 34.4 °F 36.0 °F 93% 30.13 in 6.0 mi WNW 4.6 mph - N/A   Partly Cloudy
1:25 AM 37.4 °F - 37.4 °F 100% 30.12 in 2.0 mi Calm Calm - N/A   Partly Cloudy
1:32 AM 37.4 °F - 37.4 °F 100% 30.13 in 1.0 mi Calm Calm - N/A   Scattered Clouds
1:39 AM 35.6 °F - 35.6 °F 100% 30.13 in 0.5 mi Calm Calm - N/A Fog Fog
1:53 AM 37.0 °F - 37.0 °F 100% 30.14 in 0.5 mi Calm Calm - N/A Fog Fog
2:07 AM 37.4 °F - 37.4 °F 100% 30.14 in 1.2 mi Calm Calm - N/A   Overcast
2:18 AM 37.4 °F - 37.4 °F 100% 30.15 in 3.0 mi Calm Calm - N/A   Overcast
2:43 AM 39.2 °F - 37.4 °F 93% 30.17 in 4.0 mi Calm Calm - N/A   Overcast
2:53 AM 39.9 °F - 39.0 °F 97% 30.19 in 5.0 mi Calm Calm - N/A   Overcast
3:17 AM 42.8 °F 40.1 °F 39.2 °F 87% 30.18 in 7.0 mi NW 4.6 mph - N/A   Overcast
3:53 AM 42.1 °F 40.2 °F 39.0 °F 89% 30.19 in 8.0 mi Variable 3.5 mph - N/A   Overcast
4:53 AM 42.1 °F - 37.9 °F 85% 30.20 in 8.0 mi Calm Calm - N/A   Overcast
5:53 AM 42.1 °F 40.2 °F 37.9 °F 85% 30.22 in 8.0 mi NW 3.5 mph - N/A   Overcast
6:36 AM 42.8 °F 39.3 °F 37.4 °F 81% 30.22 in 8.0 mi NNW 5.8 mph - N/A   Overcast
6:53 AM 41.0 °F - 37.4 °F 87% 30.23 in 8.0 mi Calm Calm - N/A   Overcast
7:53 AM 41.0 °F 37.1 °F 36.0 °F 82% 30.26 in 8.0 mi WNW 5.8 mph - N/A   Overcast
8:53 AM 39.0 °F 34.0 °F 36.0 °F 89% 30.30 in 7.0 mi NNW 6.9 mph - 0.01 in Rain Light Rain
9:53 AM 39.0 °F 34.8 °F 35.1 °F 86% 30.33 in 9.0 mi North 5.8 mph - 0.00 in   Overcast
10:53 AM 39.0 °F 32.8 °F 34.0 °F 82% 30.35 in 10.0 mi North 9.2 mph - N/A   Overcast
11:53 AM 39.0 °F 32.8 °F 33.1 °F 79% 30.34 in 10.0 mi North 9.2 mph - N/A   Overcast
12:00 PM 39.2 °F 33.6 °F 33.8 °F 81% 30.33 in 10.0 mi North 8.1 mph - N/A   Overcast
12:10 PM 39.2 °F 33.6 °F 33.8 °F 81% 30.32 in 10.0 mi North 8.1 mph - N/A   Overcast
12:53 PM 39.0 °F 34.0 °F 33.1 °F 79% 30.32 in 10.0 mi NNE 6.9 mph - N/A   Overcast
1:53 PM 39.0 °F 34.8 °F 32.0 °F 76% 30.31 in 10.0 mi North 5.8 mph - N/A   Overcast
2:53 PM 39.9 °F 37.8 °F 32.0 °F 73% 30.31 in 10.0 mi North 3.5 mph - N/A   Overcast
3:53 PM 39.9 °F - 32.0 °F 73% 30.30 in 10.0 mi Calm Calm - N/A   Overcast
4:22 PM 39.2 °F - 32.0 °F 75% 30.29 in 10.0 mi Calm Calm - N/A   Overcast
4:34 PM 39.2 °F - 32.0 °F 75% 30.30 in 10.0 mi Calm Calm - N/A   Overcast
4:53 PM 39.2 °F - 32.0 °F 75% 30.30 in 10.0 mi Calm Calm - N/A   Overcast
5:53 PM 39.0 °F 36.8 °F 30.9 °F 73% 30.31 in 10.0 mi WSW 3.5 mph - N/A   Overcast
6:53 PM 37.9 °F 35.5 °F 34.0 °F 86% 30.32 in 10.0 mi South 3.5 mph - N/A   Overcast
7:53 PM 37.9 °F - 33.1 °F 83% 30.33 in 10.0 mi Calm Calm - N/A   Overcast
8:53 PM 39.0 °F - 30.0 °F 70% 30.34 in 10.0 mi Calm Calm - N/A   Overcast
9:53 PM 37.0 °F - 33.1 °F 86% 30.33 in 10.0 mi Calm Calm - N/A   Overcast
10:53 PM 36.0 °F 32.1 °F 34.0 °F 93% 30.35 in 10.0 mi SSW 4.6 mph - N/A   Overcast
11:53 PM 37.0 °F 33.3 °F 32.0 °F 82% 30.36 in 10.0 mi WSW 4.6 mph - N/A   Scattered Clouds